Location: Sternwarte ZA, Rosenfeld-Brittheim
(48.2889°N, 8.6789°E)
Time: 21:30:17
(UTC+02:00)

ISS - Pass Details

Date: 25 May 2017
Orbit: 402 x 409 km, 51.6° (Epoch: 25 May)

Event Time Altitude Azimuth Distance (km) Brightness Sun altitude
Rises 02:40:29 0° 290° (WNW) 2,332 0.0 -18.6°
Reaches altitude 10° 02:42:35 10° 293° (WNW) 1,469 -1.0 -18.5°
Maximum altitude 02:45:51 62° 16° (NNE) 462 -3.4 -18.3°
Drops below altitude 10° 02:49:07 10° 98° (E) 1,461 -0.9 -18.1°
Sets 02:51:12 0° 102° (ESE) 2,318 0.1 -17.9°
